Weather History for Lanai City, HI

Change the Weather History Date:

Saturday, April 12, 2014

  Actual Average Record
Temperature  
Mean Temperature 70 °F -  
Max Temperature 77 °F 78 °F 82 °F (1990)
Min Temperature 63 °F 61 °F 51 °F (1951)
Cooling Degree Days 5    
Growing Degree Days 20 (Base 50)    
Moisture  
Dew Point 63 °F    
Average Humidity 80    
Maximum Humidity 100    
Minimum Humidity 61    
Precipitation  
Precipitation 0.02 in - - ()
Sea Level Pressure  
Sea Level Pressure 30.06 in    
Wind  
Wind Speed 24 mph (NE)    
Max Wind Speed 43 mph    
Max Gust Speed 53 mph    
Visibility 7 miles    
Events Rain    
Averages and records for this station are not official NWS values.
T = Trace of Precipitation, MM = Missing Value Source: NWS Daily Summary

Daily Weather History Graph

Daily Weather History Graph

Search for Another Location

Airport:

Trip Planner

Search our weather history database for the weather conditions in past years. The results will help you decide how hot, cold, wet, or windy it might be!

Date:

Astronomy

Apr. 12, 2014 Rise Set
Actual Time 6:11 AM HST 6:45 PM HST
Civil Twilight 5:48 AM HST 7:08 PM HST
Nautical Twilight 5:22 AM HST 7:34 PM HST
Astronomical Twilight 4:55 AM HST 8:01 PM HST
Moon 4:50 PM HST (4/12) 4:25 AM HST (4/12)
Length of Visible Light 13h 19m
Length of Day
12h 34m
Waxing Gibbous, 94% of the Moon is Illuminated
Apr 12
Waxing Gibbous
Apr 14
Full
Apr 21
Last Quarter
Apr 28
New
May 6
First Quarter

Hourly Weather History & Observations

Time (HST) Temp. Dew Point Humidity Pressure Visibility Wind Dir Wind Speed Gust Speed Precip Events Conditions
12:56 AM 64.9 °F 63.0 °F 93% 30.07 in 10.0 mi NE 17.3 mph - N/A   Mostly Cloudy
1:56 AM 64.9 °F 63.0 °F 93% 30.05 in 10.0 mi NNE 16.1 mph - 0.01 in Rain Light Rain
2:56 AM 64.9 °F 63.9 °F 96% 30.05 in 10.0 mi NNE 18.4 mph - 0.00 in   Mostly Cloudy
3:56 AM 63.9 °F 63.0 °F 97% 30.04 in 10.0 mi NE 16.1 mph - 0.01 in   Partly Cloudy
4:56 AM 63.9 °F 63.0 °F 97% 30.05 in 10.0 mi NE 19.6 mph - N/A   Mostly Cloudy
5:56 AM 64.9 °F 61.9 °F 90% 30.07 in 10.0 mi NE 18.4 mph 23.0 mph N/A   Overcast
6:56 AM 64.9 °F 61.9 °F 90% 30.09 in 10.0 mi NE 15.0 mph - N/A   Overcast
7:44 AM 64.4 °F 64.4 °F 100% 30.13 in 10.0 mi NE 21.9 mph - N/A   Scattered Clouds
7:56 AM 64.9 °F 64.9 °F 100% 30.10 in 10.0 mi NE 18.4 mph - N/A   Partly Cloudy
8:56 AM 68.9 °F 61.9 °F 78% 30.11 in 10.0 mi NE 12.7 mph 25.3 mph N/A   Partly Cloudy
9:56 AM 73.9 °F 61.0 °F 64% 30.09 in 10.0 mi NE 17.3 mph - N/A   Clear
10:56 AM 75.9 °F 61.9 °F 62% 30.09 in 10.0 mi NE 21.9 mph 26.5 mph N/A   Scattered Clouds
11:56 AM 75.9 °F 61.9 °F 62% 30.07 in 10.0 mi NE 17.3 mph 27.6 mph N/A   Clear
12:56 PM 75.9 °F 63.0 °F 64% 30.06 in 5.0 mi NE 24.2 mph 36.8 mph N/A   Haze
1:56 PM 75.9 °F 63.0 °F 64% 30.03 in 10.0 mi ENE 23.0 mph 32.2 mph N/A   Partly Cloudy
2:25 PM 75.2 °F 62.6 °F 65% 30.08 in 10.0 mi East 16.1 mph 24.2 mph N/A   Mostly Cloudy
2:33 PM 77.0 °F 62.6 °F 61% 30.06 in 1.8 mi NE 29.9 mph 36.8 mph N/A   Haze
2:48 PM 75.2 °F 62.6 °F 65% 30.06 in 4.0 mi NE 29.9 mph 36.8 mph N/A   Haze
2:56 PM 74.8 °F 63.0 °F 66% 30.00 in 6.0 mi NE 28.8 mph 36.8 mph N/A   Haze
3:16 PM 75.2 °F 62.6 °F 65% 30.04 in 1.8 mi NE 33.4 mph 36.8 mph N/A   Haze
3:20 PM 75.2 °F 62.6 °F 65% 30.06 in 2.5 mi NE 20.7 mph 34.5 mph N/A   Haze
3:29 PM 75.2 °F 62.6 °F 65% 30.05 in 8.0 mi NE 20.7 mph 34.5 mph N/A   Partly Cloudy
3:39 PM 75.2 °F 62.6 °F 65% 30.04 in 1.8 mi NE 32.2 mph 41.4 mph N/A   Haze
3:46 PM 73.4 °F 62.6 °F 69% 30.04 in 1.2 mi NE 26.5 mph 41.4 mph N/A   Haze
3:49 PM 75.2 °F 62.6 °F 65% 30.03 in 2.0 mi NE 27.6 mph 35.7 mph N/A   Haze
3:56 PM 73.9 °F 61.9 °F 66% 29.98 in 2.0 mi NE 34.5 mph 42.6 mph N/A   Haze
4:02 PM 73.4 °F 62.6 °F 69% 30.03 in 1.2 mi NE 31.1 mph 42.6 mph N/A   Haze
4:05 PM 73.4 °F 62.6 °F 69% 30.03 in 0.8 mi NE 36.8 mph 42.6 mph N/A   Haze
4:08 PM 73.4 °F 62.6 °F 69% 30.04 in 1.2 mi NNE 20.7 mph 40.3 mph N/A   Haze
4:13 PM 73.4 °F 62.6 °F 69% 30.03 in 1.5 mi NE 31.1 mph 40.3 mph N/A   Haze
4:15 PM 73.4 °F 62.6 °F 69% 30.04 in 3.0 mi NE 24.2 mph 36.8 mph N/A   Haze
4:18 PM 73.4 °F 62.6 °F 69% 30.03 in 2.0 mi NE 34.5 mph 40.3 mph N/A   Haze
4:22 PM 73.4 °F 60.8 °F 65% 30.02 in 1.2 mi NE 34.5 mph 41.4 mph N/A   Haze
4:27 PM 73.4 °F 62.6 °F 69% 30.04 in 1.2 mi NNE 17.3 mph 41.4 mph N/A   Haze
4:33 PM 73.4 °F 62.6 °F 69% 30.03 in 2.0 mi NE 32.2 mph 42.6 mph N/A   Squalls
4:37 PM 71.6 °F 62.6 °F 73% 30.04 in 1.2 mi NNE 31.1 mph 43.7 mph N/A   Squalls
4:47 PM 71.6 °F 60.8 °F 69% 30.04 in 2.0 mi ENE 27.6 mph 46.0 mph N/A   Haze
4:56 PM 71.6 °F 62.6 °F 73% 30.03 in 1.5 mi NNE 34.5 mph 42.6 mph N/A   Squalls
5:01 PM 71.6 °F 62.6 °F 73% 30.03 in 3.0 mi NE 34.5 mph 42.6 mph N/A   Haze
5:11 PM 71.6 °F 62.6 °F 73% 30.04 in 2.5 mi NE 34.5 mph 44.9 mph N/A   Haze
5:21 PM 71.6 °F 62.6 °F 73% 30.05 in 6.0 mi NE 19.6 mph 41.4 mph N/A   Haze
5:29 PM 69.8 °F 62.6 °F 78% 30.04 in 5.0 mi NE 33.4 mph 46.0 mph N/A   Squalls
5:56 PM 68.9 °F 61.9 °F 78% 30.02 in 10.0 mi NE 26.5 mph 41.4 mph N/A   Partly Cloudy
6:41 PM 66.2 °F 64.4 °F 94% 30.07 in 10.0 mi NE 34.5 mph 42.6 mph N/A   Scattered Clouds
6:49 PM 66.2 °F 64.4 °F 94% 30.07 in 10.0 mi NE 33.4 mph 43.7 mph N/A   Mostly Cloudy
6:56 PM 65.8 °F 64.9 °F 97% 30.04 in 10.0 mi NE 25.3 mph 43.7 mph N/A   Mostly Cloudy
7:27 PM 64.4 °F 64.4 °F 100% 30.08 in 10.0 mi NNE 35.7 mph 50.6 mph N/A   Squalls
7:48 PM 64.4 °F 64.4 °F 100% 30.08 in 10.0 mi NNE 23.0 mph 52.9 mph N/A   Scattered Clouds
7:56 PM 65.8 °F 63.9 °F 93% 30.04 in 10.0 mi NE 36.8 mph 42.6 mph N/A   Partly Cloudy
8:28 PM 66.2 °F 64.4 °F 94% 30.09 in 10.0 mi NE 32.2 mph 41.4 mph N/A   Mostly Cloudy
8:56 PM 64.9 °F 63.9 °F 96% 30.07 in 10.0 mi NE 26.5 mph 46.0 mph 0.00 in Rain Light Rain
9:56 PM 65.8 °F 64.9 °F 97% 30.06 in 10.0 mi NE 38.0 mph 44.9 mph 0.00 in   Overcast
10:03 PM 66.2 °F 64.4 °F 94% 30.11 in 10.0 mi NE 38.0 mph 47.2 mph N/A   Overcast
10:23 PM 66.2 °F 66.2 °F 100% 30.11 in 10.0 mi NE 34.5 mph 46.0 mph N/A   Mostly Cloudy
10:56 PM 66.2 °F 66.2 °F 100% 30.13 in 10.0 mi ENE 26.5 mph 32.2 mph N/A   Mostly Cloudy
11:15 PM 66.2 °F 66.2 °F 100% 30.11 in 10.0 mi ENE 38.0 mph 44.9 mph N/A   Mostly Cloudy
11:25 PM 66.2 °F 64.4 °F 94% 30.10 in 10.0 mi NE 42.6 mph 49.5 mph N/A   Scattered Clouds
11:56 PM 66.9 °F 64.9 °F 93% 30.06 in 10.0 mi NE 31.1 mph 41.4 mph N/A   Mostly Cloudy